| time (UTC) | temp F | wind direction | speed MPH | gust MPH | rain 1hr in | rain 24hr in | rain mn in | humidity % | barometer mb |
| 20260506130014 | 49 | 64 | 3.0 | 7.0 | 0.00 | 0.49 | 0.07 | 82 | 984.4 |
| 20260506124509 | 49 | 73 | 4.0 | 7.0 | 0.00 | 0.49 | 0.07 | 81 | 984.2 |
| 20260506123007 | 49 | 34 | 1.0 | 4.0 | 0.00 | 0.49 | 0.07 | 91 | 984.0 |
| 20260506121500 | 48 | 318 | 0.0 | 4.0 | 0.00 | 0.49 | 0.07 | 94 | 983.8 |
| 20260506114558 | 46 | 297 | 0.0 | 3.0 | 0.00 | 0.49 | 0.07 | 95 | 983.7 |
| 20260506113055 | 46 | 257 | 0.0 | 1.0 | 0.00 | 0.49 | 0.07 | 96 | 983.2 |
| 20260506111551 | 45 | 257 | 0.0 | 0.0 | 0.00 | 0.49 | 0.07 | 97 | 983.1 |
| 20260506110049 | 43 | 257 | 0.0 | 0.0 | 0.00 | 0.49 | 0.07 | 98 | 982.6 |
| 20260506104553 | 43 | 257 | 0.0 | 0.0 | 0.00 | 0.49 | 0.07 | 96 | 982.6 |
| 20260506103047 | 44 | 257 | 0.0 | 0.0 | 0.00 | 0.49 | 0.07 | 96 | 982.5 |
| 20260506101545 | 45 | 257 | 0.0 | 0.0 | 0.00 | 0.49 | 0.07 | 96 | 982.1 |
| 20260506100053 | 45 | 257 | 0.0 | 0.0 | 0.00 | 0.49 | 0.07 | 96 | 982.0 |
| 20260506094541 | 45 | 257 | 0.0 | 1.0 | 0.00 | 0.49 | 0.07 | 96 | 982.1 |
| 20260506093041 | 45 | 257 | 0.0 | 2.0 | 0.00 | 0.49 | 0.07 | 96 | 981.9 |
| 20260506091542 | 45 | 154 | 0.0 | 1.0 | 0.00 | 0.49 | 0.07 | 96 | 981.7 |
| 20260506090040 | 45 | 154 | 0.0 | 0.0 | 0.00 | 0.49 | 0.07 | 96 | 981.7 |
| 20260506084542 | 45 | 154 | 0.0 | 0.0 | 0.00 | 0.49 | 0.07 | 95 | 981.7 |
| 20260506083039 | 45 | 154 | 0.0 | 0.0 | 0.00 | 0.49 | 0.07 | 95 | 981.6 |
| 20260506081542 | 45 | 154 | 0.0 | 1.0 | 0.00 | 0.49 | 0.07 | 95 | 981.3 |
| 20260506073037 | 45 | 154 | 0.0 | 0.0 | 0.00 | 0.50 | 0.07 | 94 | 980.9 |
| 20260506071536 | 45 | 154 | 0.0 | 4.0 | 0.00 | 0.50 | 0.07 | 95 | 981.3 |
| 20260506061529 | 45 | 344 | 0.0 | 1.0 | 0.04 | 0.53 | 0.07 | 92 | 981.2 |
| 20260506044527 | 47 | 39 | 0.0 | 0.0 | 0.02 | 0.78 | 0.02 | 98 | 981.8 |
| 20260506043016 | 47 | 39 | 0.0 | 0.0 | 0.02 | 0.78 | 0.02 | 98 | 982.0 |
| 20260506041515 | 47 | 39 | 0.0 | 0.0 | 0.01 | 0.77 | 0.01 | 98 | 981.8 |
| 20260506040012 | 47 | 39 | 0.0 | 1.0 | 0.01 | 0.76 | 0.00 | 98 | 981.8 |
| 20260506034511 | 47 | 39 | 0.0 | 0.0 | 0.02 | 0.76 | 0.76 | 98 | 981.2 |
| 20260506033010 | 47 | 39 | 0.0 | 0.0 | 0.04 | 0.76 | 0.76 | 98 | 981.5 |
| 20260506031517 | 47 | 39 | 0.0 | 0.0 | 0.04 | 0.75 | 0.75 | 98 | 981.5 |
| 20260506030019 | 47 | 39 | 0.0 | 2.0 | 0.05 | 0.75 | 0.75 | 98 | 981.1 |
| 20260506024519 | 47 | 39 | 0.0 | 0.0 | 0.04 | 0.74 | 0.74 | 98 | 981.1 |
| 20260506023007 | 47 | 39 | 0.0 | 0.0 | 0.02 | 0.72 | 0.72 | 98 | 981.1 |
| 20260506021503 | 47 | 39 | 0.0 | 2.0 | 0.02 | 0.71 | 0.71 | 97 | 981.5 |
| 20260506020100 | 47 | 39 | 0.0 | 1.0 | 0.02 | 0.70 | 0.70 | 97 | 980.7 |
| 20260506014612 | 47 | 39 | 1.0 | 3.0 | 0.02 | 0.70 | 0.70 | 97 | 980.6 |
| 20260506013100 | 47 | 135 | 0.0 | 0.0 | 0.02 | 0.70 | 0.70 | 97 | 980.5 |
| 20260506011558 | 47 | 135 | 0.0 | 0.0 | 0.02 | 0.69 | 0.69 | 96 | 980.5 |
| 20260506010105 | 47 | 135 | 0.0 | 0.0 | 0.01 | 0.68 | 0.68 | 96 | 980.4 |
| 20260506004556 | 47 | 135 | 0.0 | 0.0 | 0.03 | 0.68 | 0.68 | 96 | 980.4 |
| 20260506003056 | 47 | 134 | 0.0 | 0.0 | 0.05 | 0.68 | 0.68 | 96 | 980.3 |
| 20260506001559 | 47 | 135 | 0.0 | 0.0 | 0.06 | 0.67 | 0.67 | 95 | 980.3 |
| 20260506000059 | 47 | 135 | 0.0 | 0.0 | 0.07 | 0.67 | 0.67 | 95 | 980.0 |
| 20260505234554 | 47 | 134 | 0.0 | 0.0 | 0.06 | 0.65 | 0.65 | 95 | 979.8 |
| 20260505233104 | 47 | 135 | 0.0 | 3.0 | 0.05 | 0.63 | 0.63 | 95 | 980.1 |
| 20260505231552 | 47 | 258 | 0.0 | 0.0 | 0.03 | 0.61 | 0.61 | 95 | 980.0 |
| 20260505230053 | 47 | 258 | 0.0 | 1.0 | 0.02 | 0.60 | 0.60 | 95 | 980.2 |
| 20260505224551 | 47 | 258 | 0.0 | 0.0 | 0.02 | 0.59 | 0.59 | 95 | 980.3 |
| 20260505223052 | 47 | 258 | 0.0 | 1.0 | 0.02 | 0.57 | 0.57 | 94 | 980.5 |
| 20260505221555 | 47 | 259 | 0.0 | 3.0 | 0.03 | 0.57 | 0.57 | 94 | 980.8 |
| 20260505220049 | 47 | 315 | 0.0 | 1.0 | 0.05 | 0.57 | 0.57 | 94 | 980.5 |
| 20260505214549 | 47 | 315 | 0.0 | 1.0 | 0.05 | 0.56 | 0.56 | 94 | 980.5 |
| 20260505213050 | 46 | 315 | 0.0 | 0.0 | 0.04 | 0.56 | 0.56 | 94 | 980.6 |
| 20260505211548 | 47 | 315 | 0.0 | 2.0 | 0.03 | 0.55 | 0.55 | 94 | 980.7 |
| 20260505210048 | 46 | 315 | 0.0 | 5.0 | 0.02 | 0.53 | 0.53 | 94 | 980.6 |
| 20260505204546 | 46 | 340 | 1.0 | 5.0 | 0.03 | 0.52 | 0.52 | 94 | 980.7 |
| 20260505203050 | 47 | 327 | 2.0 | 4.0 | 0.03 | 0.52 | 0.52 | 95 | 980.8 |
| 20260505201547 | 47 | 333 | 2.0 | 10.0 | 0.03 | 0.52 | 0.52 | 93 | 980.8 |
| 20260505200041 | 48 | 337 | 1.0 | 5.0 | 0.02 | 0.51 | 0.51 | 92 | 980.7 |
| 20260505194542 | 48 | 327 | 3.0 | 5.0 | 0.00 | 0.49 | 0.49 | 89 | 980.5 |
| 20260505193057 | 49 | 31 | 0.0 | 3.0 | 0.01 | 0.49 | 0.49 | 91 | 980.2 |
| 20260505191541 | 48 | 51 | 1.0 | 4.0 | 0.01 | 0.49 | 0.49 | 91 | 980.3 |
| 20260505190040 | 48 | 20 | 3.0 | 9.0 | 0.02 | 0.49 | 0.49 | 91 | 980.1 |
| 20260505184534 | 48 | 62 | 0.0 | 1.0 | 0.04 | 0.49 | 0.49 | 94 | 980.3 |
| 20260505183034 | 48 | 62 | 0.0 | 3.0 | 0.05 | 0.48 | 0.48 | 92 | 980.4 |
| 20260505181534 | 48 | 62 | 0.0 | 3.0 | 0.06 | 0.48 | 0.48 | 91 | 980.4 |
| 20260505180037 | 49 | 275 | 0.0 | 0.0 | 0.07 | 0.47 | 0.47 | 88 | 980.5 |
| 20260505174530 | 49 | 275 | 0.0 | 1.0 | 0.10 | 0.45 | 0.45 | 88 | 980.8 |
| 20260505173028 | 49 | 275 | 0.0 | 2.0 | 0.08 | 0.43 | 0.43 | 88 | 980.9 |
| 20260505171528 | 49 | 275 | 0.0 | 3.0 | 0.08 | 0.42 | 0.42 | 88 | 980.6 |
| 20260505170024 | 50 | 59 | 0.0 | 1.0 | 0.05 | 0.39 | 0.39 | 85 | 980.6 |
| 20260505164523 | 51 | 59 | 0.0 | 2.0 | 0.01 | 0.35 | 0.35 | 79 | 980.5 |
| 20260505163025 | 51 | 59 | 0.0 | 1.0 | 0.01 | 0.35 | 0.35 | 78 | 980.4 |
| 20260505161520 | 51 | 59 | 1.0 | 3.0 | 0.00 | 0.34 | 0.34 | 77 | 980.4 |
| 20260505153022 | 52 | 299 | 1.0 | 4.0 | 0.00 | 0.34 | 0.34 | 76 | 980.7 |
| 20260505151519 | 52 | 338 | 1.0 | 5.0 | 0.00 | 0.34 | 0.34 | 75 | 980.8 |